Date String (YYYY-MM-DD hh:mm:ss) UTC,Instrument flags,absolute air pressure of the measurement (hPa),sample flow rate (lpm),inlet stack bypass flow (lpm),air temperature of the measurement (°C),ambient temperature measured by the external sensor (°C),aerosol sample conditioner tube jacket temperature (°C),OPC LED temperature (°C),internal box temperature (°C),relative humidity of the measurement (%),span deviation,mass concentration of particles derived from Lorenz-Mie calculation of OPC scattering (μg/m³),mass concentration of particles derived from Lorenz-Mie calculation of OPC scattering (μg/m³),mass concentration of particles derived from Lorenz-Mie calculation of OPC scattering (μg/m³)
DateTimeUTC,F1_M11,P_M11,Q1_M11,Q2_M11,T1_M11,T2_M11,T3_M11,T4_M11,T5_M11,U1_M11,ZSPAN_M11,X0_M11,X2_M11,X1_M11
2024-03-03 07:00:00,SystemResetWarning,0811.1,5.00,000.00,022.0,021.1,000.0,030.5,023.8,20.4,0000.0,0010.29,0003.17,0000.84
2024-03-03 07:01:00,SystemResetWarning,0811.2,5.01,000.00,022.0,021.1,000.0,030.5,023.8,20.4,0000.0,0010.23,0003.16,0000.84
2024-03-03 07:02:00,SystemResetWarning,0811.3,5.00,000.00,022.0,021.1,000.0,030.5,023.8,20.5,0000.0,0010.01,0003.14,0000.84
2024-03-03 07:03:00,SystemResetWarning,0811.5,4.98,000.00,022.0,021.1,000.0,030.5,023.7,20.5,0000.0,0010.29,0003.16,0000.85
2024-03-03 07:04:00,SystemResetWarning,0811.6,5.00,000.00,021.9,021.1,000.0,030.5,023.7,20.6,0000.0,0010.26,0003.17,0000.86
2024-03-03 07:05:00,SystemResetWarning,0811.6,5.01,000.00,021.9,021.1,000.0,030.5,023.7,20.6,0000.0,0010.36,0003.18,0000.87
2024-03-03 07:06:00,SystemResetWarning,0811.4,5.00,000.00,021.9,021.0,000.0,030.4,023.7,20.7,0000.0,0010.28,0003.16,0000.85
2024-03-03 07:07:00,SystemResetWarning,0811.1,5.00,000.00,021.9,021.0,000.0,030.4,023.6,20.8,0000.0,0010.24,0003.14,0000.84
2024-03-03 07:08:00,SystemResetWarning,0811.1,4.99,000.00,021.9,021.0,000.0,030.4,023.6,20.6,0000.0,0010.27,0003.16,0000.84
2024-03-03 07:09:00,SystemResetWarning,0811.1,5.00,000.00,021.8,021.0,000.0,030.4,023.6,20.6,0000.0,0009.73,0003.19,0000.83
2024-03-03 07:10:00,SystemResetWarning,0811.1,5.01,000.00,021.8,020.9,000.0,030.4,023.5,20.7,0000.0,0009.97,0003.23,0000.82
2024-03-03 07:11:00,SystemResetWarning,0811.2,5.00,000.00,021.8,020.9,000.0,030.4,023.5,21.2,0000.0,0010.17,0003.23,0000.80
2024-03-03 07:12:00,SystemResetWarning,0811.2,5.00,000.00,021.8,020.9,000.0,030.3,023.5,21.1,0000.0,0010.45,0003.24,0000.79
2024-03-03 07:13:00,SystemResetWarning,0811.1,5.00,000.00,021.8,020.9,000.0,030.3,023.5,21.1,0000.0,0010.42,0003.25,0000.76
2024-03-03 07:14:00,SystemResetWarning,0811.2,4.99,000.00,021.7,020.9,000.0,030.3,023.5,20.8,0000.0,0010.27,0003.27,0000.74
2024-03-03 07:15:00,SystemResetWarning,0811.1,5.00,000.00,021.7,020.9,000.0,030.3,023.5,21.2,0000.0,0010.51,0003.26,0000.73
2024-03-03 07:16:00,SystemResetWarning,0811.1,5.00,000.00,021.7,020.8,000.0,030.3,023.5,21.6,0000.0,0010.34,0003.26,0000.72
2024-03-03 07:17:00,SystemResetWarning,0811.0,4.99,000.00,021.7,020.8,000.0,030.3,023.5,21.6,0000.0,0010.48,0003.34,0000.72
2024-03-03 07:18:00,SystemResetWarning,0811.1,5.01,000.00,021.7,020.8,000.0,030.3,023.5,21.5,0000.0,0010.52,0003.35,0000.71
2024-03-03 07:19:00,SystemResetWarning,0811.0,5.02,000.00,021.7,020.8,000.0,030.3,023.5,21.6,0000.0,0010.85,0003.37,0000.71
2024-03-03 07:20:00,SystemResetWarning,0811.0,4.99,000.00,021.7,020.8,000.0,030.2,023.4,21.7,0000.0,0011.27,0003.36,0000.70
2024-03-03 07:21:00,SystemResetWarning,0811.1,4.99,000.00,021.7,020.8,000.0,030.2,023.4,21.9,0000.0,0011.37,0003.37,0000.70
2024-03-03 07:22:00,SystemResetWarning,0811.0,4.99,000.00,021.6,020.8,000.0,030.2,023.4,22.1,0000.0,0011.84,0003.39,0000.71
2024-03-03 07:23:00,SystemResetWarning,0811.1,5.01,000.00,021.6,020.8,000.0,030.2,023.4,22.2,0000.0,0011.93,0003.41,0000.71
2024-03-03 07:24:00,SystemResetWarning,0811.1,5.00,000.00,021.6,020.7,000.0,030.2,023.3,22.4,0000.0,0012.19,0003.37,0000.70
2024-03-03 07:25:00,SystemResetWarning,0811.1,5.00,000.00,021.6,020.7,000.0,030.1,023.3,22.6,0000.0,0011.99,0003.33,0000.69
2024-03-03 07:26:00,SystemResetWarning,0811.1,5.00,000.00,021.6,020.7,000.0,030.1,023.3,22.7,0000.0,0012.21,0003.32,0000.67
2024-03-03 07:27:00,SystemResetWarning,0811.1,5.00,000.00,021.5,020.7,000.0,030.1,023.2,22.8,0000.0,0013.07,0003.32,0000.66
2024-03-03 07:28:00,SystemResetWarning,0811.1,4.99,000.00,021.5,020.6,000.0,030.1,023.2,22.9,0000.0,0013.23,0003.29,0000.65
2024-03-03 07:29:00,SystemResetWarning,0811.1,4.99,000.00,021.5,020.6,000.0,030.1,023.2,22.9,0000.0,0013.62,0003.29,0000.64
2024-03-03 07:30:00,SystemResetWarning,0810.9,5.00,000.00,021.5,020.6,000.0,030.0,023.2,23.1,0000.0,0014.04,0003.32,0000.64
2024-03-03 07:31:00,SystemResetWarning,0810.8,5.01,000.00,021.5,020.6,000.0,030.0,023.2,23.2,0000.0,0014.00,0003.36,0000.65
2024-03-03 07:32:00,SystemResetWarning,0810.8,5.00,000.00,021.5,020.5,000.0,030.0,023.1,23.2,0000.0,0013.51,0003.35,0000.64
2024-03-03 07:33:00,SystemResetWarning,0810.7,5.00,000.00,021.4,020.5,000.0,030.0,023.1,23.3,0000.0,0012.74,0003.37,0000.62
2024-03-03 07:34:00,SystemResetWarning,0810.7,5.00,000.00,021.4,020.5,000.0,030.0,023.1,23.2,0000.0,0012.23,0003.36,0000.61
2024-03-03 07:35:00,SystemResetWarning,0810.7,5.00,000.00,021.4,020.5,000.0,029.9,023.1,23.2,0000.0,0012.04,0003.42,0000.62
2024-03-03 07:36:00,SystemResetWarning,0810.7,5.00,000.00,021.4,020.5,000.0,029.9,023.1,23.3,0000.0,0012.11,0003.47,0000.63
2024-03-03 07:37:00,SystemResetWarning,0810.7,5.00,000.00,021.4,020.5,000.0,029.9,023.1,23.3,0000.0,0011.71,0003.45,0000.63
2024-03-03 07:38:00,SystemResetWarning,0810.6,5.00,000.00,021.4,020.5,000.0,029.9,023.1,23.4,0000.0,0011.31,0003.45,0000.62
2024-03-03 07:39:00,SystemResetWarning,0810.7,5.00,000.00,021.3,020.5,000.0,029.9,023.1,23.4,0000.0,0010.99,0003.41,0000.61
2024-03-03 07:40:00,SystemResetWarning,0810.6,5.00,000.00,021.3,020.5,000.0,029.9,023.1,23.4,0000.0,0010.41,0003.34,0000.60
2024-03-03 07:41:00,SystemResetWarning,0810.5,5.00,000.00,021.3,020.4,000.0,029.9,023.1,23.4,0000.0,0009.86,0003.29,0000.58
2024-03-03 07:42:00,SystemResetWarning,0810.6,5.00,000.00,021.3,020.4,000.0,029.9,023.1,23.4,0000.0,0009.39,0003.20,0000.55
2024-03-03 07:43:00,SystemResetWarning,0810.5,4.99,000.00,021.3,020.4,000.0,029.9,023.1,23.4,0000.0,0009.10,0003.12,0000.53
2024-03-03 07:44:00,SystemResetWarning,0810.5,5.00,000.00,021.3,020.4,000.0,029.9,023.1,23.5,0000.0,0008.71,0003.06,0000.52
2024-03-03 07:45:00,SystemResetWarning,0810.4,5.01,000.00,021.3,020.5,000.0,029.9,023.1,23.6,0000.0,0008.50,0003.01,0000.53
2024-03-03 07:46:00,SystemResetWarning,0810.4,5.00,000.00,021.3,020.5,000.0,029.9,023.1,23.6,0000.0,0008.37,0002.92,0000.53
2024-03-03 07:47:00,SystemResetWarning,0810.3,5.01,000.00,021.3,020.5,000.0,029.9,023.1,23.7,0000.0,0008.45,0002.78,0000.52
2024-03-03 07:48:00,SystemResetWarning,0810.2,5.01,000.00,021.3,020.5,000.0,029.9,023.1,23.7,0000.0,0008.30,0002.78,0000.53
2024-03-03 07:49:00,SystemResetWarning,0810.2,5.01,000.00,021.3,020.5,000.0,029.9,023.1,23.7,0000.0,0008.30,0002.77,0000.52
2024-03-03 07:50:00,SystemResetWarning,0810.1,5.00,000.00,021.3,020.5,000.0,029.9,023.1,23.7,0000.0,0008.51,0002.83,0000.53
2024-03-03 07:51:00,SystemResetWarning,0810.1,5.00,000.00,021.3,020.5,000.0,029.9,023.2,23.7,0000.0,0008.90,0002.96,0000.53
2024-03-03 07:52:00,SystemResetWarning,0810.1,5.00,000.00,021.3,020.5,000.0,029.9,023.2,23.8,0000.0,0008.94,0002.96,0000.54
2024-03-03 07:53:00,SystemResetWarning,0810.2,4.99,000.00,021.3,020.6,000.0,029.9,023.2,23.8,0000.0,0009.08,0002.99,0000.54
2024-03-03 07:54:00,SystemResetWarning,0810.1,5.00,000.00,021.3,020.6,000.0,029.9,023.2,23.7,0000.0,0009.10,0003.03,0000.55
2024-03-03 07:55:00,SystemResetWarning,0810.1,4.99,000.00,021.3,020.6,000.0,029.9,023.2,23.7,0000.0,0009.14,0003.02,0000.55
2024-03-03 07:56:00,SystemResetWarning,0810.2,5.01,000.00,021.4,020.6,000.0,029.9,023.2,23.7,0000.0,0009.27,0003.04,0000.54
2024-03-03 07:57:00,SystemResetWarning,0810.3,5.01,000.00,021.4,020.6,000.0,029.9,023.2,23.7,0000.0,0009.25,0003.03,0000.53
2024-03-03 07:58:00,SystemResetWarning,0810.4,5.01,000.00,021.4,020.6,000.0,029.9,023.3,23.7,0000.0,0009.35,0003.11,0000.54
2024-03-03 07:59:00,SystemResetWarning,0810.5,5.00,000.00,021.4,020.6,000.0,029.9,023.2,23.8,0000.0,0009.45,0003.10,0000.55
